Weather History for Claremore, OK

Change the Weather History Date:

Friday, December 6, 2013

  Actual Average (KTUL) Record (KTUL)
Temperature  
Mean Temperature 18 °F 42 °F  
Max Temperature 23 °F 52 °F 77 °F (1966)
Min Temperature 14 °F 32 °F 3 °F (1950)
Degree Days  
Heating Degree Days 46 24  
Month to date heating degree days 137  
Since 1 July heating degree days 773  
Moisture  
Dew Point 12 °F    
Average Humidity 74    
Maximum Humidity 93    
Minimum Humidity 54    
Precipitation  
Precipitation 0.02 in 0.09 in 1.65 in (1935)
Month to date precipitation 0.52  
Year to date precipitation 39.00  
Sea Level Pressure  
Sea Level Pressure 30.44 in    
Wind  
Wind Speed 10 mph (North)    
Max Wind Speed 14 mph    
Max Gust Speed 22 mph    
Visibility 6 miles    
Events Snow    
T = Trace of Precipitation, MM = Missing Value Source: NWS Daily Summary

Daily Weather History Graph

Daily Weather History Graph

Search for Another Location

Airport:

Trip Planner

Search our weather history database for the weather conditions in past years. The results will help you decide how hot, cold, wet, or windy it might be!

Date:

Astronomy

Dec. 06, 2013 Rise Set
Actual Time 7:19 AM CST 5:06 PM CST
Civil Twilight 6:50 AM CST 5:35 PM CST
Nautical Twilight 6:18 AM CST 6:07 PM CST
Astronomical Twilight 5:47 AM CST 6:38 PM CST
Moon 10:29 AM CST (12/6) 9:34 PM CST (12/6)
Length of Visible Light 10h 44m
Length of Day
9h 47m
Waxing Crescent, 19% of the Moon is Illuminated
Dec 6
Waxing Crescent
Dec 9
First Quarter
Dec 17
Full
Dec 25
Last Quarter
Jan 1
New

Hourly Weather History & Observations

Time (CST) Temp. Windchill Dew Point Humidity Pressure Visibility Wind Dir Wind Speed Gust Speed Precip Events Conditions
12:15 AM 21.2 °F 8.9 °F 15.8 °F 80% 30.33 in 5.0 mi NNE 12.7 mph 19.6 mph N/A Snow Light Snow
12:35 AM 21.2 °F 8.9 °F 15.8 °F 80% 30.32 in 7.0 mi North 12.7 mph 19.6 mph N/A   Overcast
12:55 AM 21.2 °F 8.9 °F 17.6 °F 86% 30.32 in 2.5 mi North 12.7 mph - N/A Snow Light Snow
1:15 AM 21.2 °F 8.9 °F 17.6 °F 86% 30.32 in 3.0 mi North 12.7 mph 16.1 mph N/A Snow Light Snow
1:35 AM 21.2 °F 10.1 °F 17.6 °F 86% 30.31 in 2.0 mi North 10.4 mph - N/A Snow Light Snow
1:55 AM 21.2 °F 8.9 °F 17.6 °F 86% 30.30 in 1.5 mi NNE 12.7 mph 18.4 mph N/A Snow Light Snow
2:15 AM 21.2 °F 13.6 °F 17.6 °F 86% 30.31 in 0.8 mi North 5.8 mph - N/A Snow Light Snow
2:35 AM 19.4 °F 7.2 °F 17.6 °F 93% 30.33 in 1.2 mi North 11.5 mph 18.4 mph N/A Snow Light Snow
2:55 AM 21.2 °F 10.1 °F 17.6 °F 86% 30.33 in 1.5 mi NNE 10.4 mph - N/A Snow Light Snow
3:15 AM 21.2 °F 10.1 °F 17.6 °F 86% 30.32 in 1.2 mi NNE 10.4 mph - N/A Snow Light Snow
3:35 AM 21.2 °F 10.1 °F 17.6 °F 86% 30.31 in 1.5 mi North 10.4 mph - N/A Snow Light Snow
3:55 AM 19.4 °F 8.6 °F 17.6 °F 93% 30.33 in 1.8 mi North 9.2 mph 17.3 mph N/A Snow Light Snow
4:15 AM 19.4 °F 7.2 °F 17.6 °F 93% 30.32 in 1.8 mi North 11.5 mph 19.6 mph N/A Snow Light Snow
4:35 AM 19.4 °F 7.2 °F 17.6 °F 93% 30.30 in 2.0 mi North 11.5 mph 16.1 mph N/A Snow Light Snow
5:55 AM 19.4 °F 10.4 °F 15.8 °F 86% 30.34 in 1.2 mi North 6.9 mph 18.4 mph N/A Snow Light Snow
6:15 AM 19.4 °F 7.9 °F 15.8 °F 86% 30.35 in 2.0 mi North 10.4 mph - N/A Snow Light Snow
6:35 AM 19.4 °F 6.0 °F 15.8 °F 86% 30.36 in 2.5 mi North 13.8 mph 20.7 mph N/A Snow Light Snow
6:55 AM 19.4 °F 8.6 °F 15.8 °F 86% 30.36 in 1.0 mi North 9.2 mph 16.1 mph N/A Snow Light Snow
7:15 AM 19.4 °F 8.6 °F 15.8 °F 86% 30.36 in 0.8 mi North 9.2 mph - N/A Snow Light Snow
7:35 AM 19.4 °F 7.9 °F 15.8 °F 86% 30.36 in 0.8 mi North 10.4 mph 19.6 mph 0.01 in Snow Light Snow
7:55 AM 19.4 °F 6.6 °F 15.8 °F 86% 30.38 in 0.8 mi NNE 12.7 mph 17.3 mph 0.01 in Snow Light Snow
8:15 AM 19.4 °F 8.6 °F 15.8 °F 86% 30.38 in 0.8 mi NNE 9.2 mph 18.4 mph N/A Snow Light Snow
8:35 AM 19.4 °F 7.2 °F 15.8 °F 86% 30.38 in 1.0 mi NNE 11.5 mph - N/A Snow Light Snow
8:55 AM 19.4 °F 10.4 °F 17.6 °F 93% 30.40 in 1.0 mi North 6.9 mph - N/A Snow Light Snow
9:15 AM 19.4 °F 9.5 °F 17.6 °F 93% 30.40 in 1.0 mi North 8.1 mph - 0.01 in Snow Light Snow
9:35 AM 19.4 °F 10.4 °F 17.6 °F 93% 30.41 in 1.0 mi North 6.9 mph - 0.01 in Snow Light Snow
9:55 AM 19.4 °F 6.6 °F 15.8 °F 86% 30.41 in 1.8 mi North 12.7 mph 18.4 mph 0.01 in Snow Light Snow
10:15 AM 19.4 °F 7.9 °F 15.8 °F 86% 30.45 in 2.5 mi North 10.4 mph 17.3 mph N/A Snow Light Snow
10:35 AM 19.4 °F 7.9 °F 15.8 °F 86% 30.45 in 5.0 mi North 10.4 mph - N/A Snow Light Snow
10:55 AM 21.2 °F 9.5 °F 14.0 °F 74% 30.45 in 10.0 mi NNE 11.5 mph 19.6 mph N/A   Mostly Cloudy
11:15 AM 21.2 °F 10.9 °F 14.0 °F 74% 30.45 in 10.0 mi NNE 9.2 mph 19.6 mph N/A   Scattered Clouds
11:35 AM 21.2 °F 8.9 °F 14.0 °F 74% 30.46 in 10.0 mi North 12.7 mph 16.1 mph N/A   Mostly Cloudy
11:55 AM 21.2 °F 10.9 °F 14.0 °F 74% 30.45 in 10.0 mi North 9.2 mph 16.1 mph N/A   Mostly Cloudy
12:15 PM 21.2 °F 9.5 °F 14.0 °F 74% 30.45 in 5.0 mi North 11.5 mph 16.1 mph N/A Snow Light Snow
12:35 PM 21.2 °F 8.9 °F 14.0 °F 74% 30.44 in 10.0 mi North 12.7 mph 18.4 mph N/A   Mostly Cloudy
12:55 PM 21.2 °F 8.3 °F 14.0 °F 74% 30.43 in 10.0 mi NNE 13.8 mph 20.7 mph N/A   Scattered Clouds
1:15 PM 21.2 °F 8.3 °F 14.0 °F 74% 30.44 in 10.0 mi North 13.8 mph 21.9 mph N/A   Scattered Clouds
1:35 PM 23.0 °F 12.4 °F 14.0 °F 68% 30.44 in 10.0 mi NNE 10.4 mph 17.3 mph N/A   Scattered Clouds
1:55 PM 23.0 °F 13.1 °F 12.2 °F 63% 30.44 in 10.0 mi North 9.2 mph 18.4 mph N/A   Scattered Clouds
2:15 PM 23.0 °F 11.7 °F 12.2 °F 63% 30.45 in 10.0 mi North 11.5 mph 17.3 mph N/A   Clear
2:35 PM 23.0 °F 13.1 °F 12.2 °F 63% 30.45 in 10.0 mi North 9.2 mph 16.1 mph N/A   Clear
2:55 PM 23.0 °F 11.7 °F 12.2 °F 63% 30.44 in 10.0 mi NNE 11.5 mph 19.6 mph N/A   Clear
3:15 PM 23.0 °F 11.7 °F 12.2 °F 63% 30.44 in 10.0 mi North 11.5 mph 18.4 mph N/A   Scattered Clouds
3:35 PM 23.0 °F 12.4 °F 10.4 °F 59% 30.45 in 10.0 mi NNE 10.4 mph 18.4 mph N/A   Scattered Clouds
3:55 PM 23.0 °F 13.1 °F 12.2 °F 63% 30.46 in 10.0 mi North 9.2 mph 18.4 mph N/A   Mostly Cloudy
4:15 PM 23.0 °F 12.4 °F 10.4 °F 59% 30.47 in 10.0 mi North 10.4 mph 17.3 mph N/A   Mostly Cloudy
4:35 PM 23.0 °F 12.4 °F 10.4 °F 59% 30.48 in 10.0 mi North 10.4 mph 16.1 mph N/A   Mostly Cloudy
4:55 PM 21.2 °F 11.7 °F 8.6 °F 58% 30.49 in 10.0 mi North 8.1 mph 17.3 mph N/A   Mostly Cloudy
6:15 PM 21.2 °F 11.7 °F 8.6 °F 58% 30.53 in 10.0 mi North 8.1 mph - N/A   Mostly Cloudy
6:35 PM 19.4 °F 10.4 °F 6.8 °F 58% 30.53 in 10.0 mi NNE 6.9 mph - N/A   Scattered Clouds
6:55 PM 19.4 °F 10.4 °F 5.0 °F 54% 30.54 in 10.0 mi North 6.9 mph - N/A   Clear
7:15 PM 17.6 °F 8.2 °F 5.0 °F 58% 30.54 in 10.0 mi North 6.9 mph - N/A   Clear
7:35 PM 17.6 °F 9.3 °F 5.0 °F 58% 30.55 in 10.0 mi NNE 5.8 mph - N/A   Clear
7:55 PM 15.8 °F 10.2 °F 5.0 °F 62% 30.56 in 10.0 mi North 3.5 mph - N/A   Clear
8:15 PM 14.0 °F 8.2 °F 5.0 °F 67% 30.56 in 10.0 mi North 3.5 mph - N/A   Clear
8:35 PM 15.8 °F 7.2 °F 5.0 °F 62% 30.57 in 10.0 mi North 5.8 mph - N/A   Clear
8:55 PM 15.8 °F 5.1 °F 5.0 °F 62% 30.58 in 10.0 mi North 8.1 mph - N/A   Clear
9:15 PM 15.8 °F 8.6 °F 5.0 °F 62% 30.59 in 10.0 mi North 4.6 mph - N/A   Clear
9:35 PM 15.8 °F 6.1 °F 5.0 °F 62% 30.60 in 10.0 mi North 6.9 mph - N/A   Clear
9:55 PM 15.8 °F 6.1 °F 3.2 °F 58% 30.60 in 10.0 mi North 6.9 mph - N/A   Clear
10:15 PM 15.8 °F 4.2 °F 3.2 °F 58% 30.61 in 10.0 mi North 9.2 mph - N/A   Clear
10:35 PM 15.8 °F 4.2 °F 3.2 °F 58% 30.61 in 10.0 mi North 9.2 mph - N/A   Clear
10:55 PM 14.0 °F 0.5 °F 3.2 °F 62% 30.61 in 10.0 mi North 11.5 mph - N/A   Clear
11:15 PM 14.0 °F 2.0 °F 3.2 °F 62% 30.61 in 10.0 mi NNE 9.2 mph - N/A   Clear
11:35 PM 14.0 °F 2.0 °F 3.2 °F 62% 30.62 in 10.0 mi NNE 9.2 mph - N/A   Clear
11:55 PM 14.0 °F 1.2 °F 3.2 °F 62% 30.62 in 10.0 mi NNE 10.4 mph - N/A   Clear